Weather History for Rensselaer, IN

Change the Weather History Date:

Wednesday, May 22, 2013

  Actual Average (KVPZ) Record (KVPZ)
Temperature  
Mean Temperature 68 °F 61 °F  
Max Temperature 75 °F 72 °F 87 °F (2007)
Min Temperature 62 °F 50 °F 36 °F (2006)
Degree Days  
Heating Degree Days 0 6  
Month to date heating degree days 180  
Since 1 July heating degree days 6239  
Cooling Degree Days 4 2  
Month to date cooling degree days 22  
Year to date cooling degree days 27  
Growing Degree Days 18 (Base 50)    
Moisture  
Dew Point 60 °F    
Average Humidity 76    
Maximum Humidity 94    
Minimum Humidity 47    
Precipitation  
Precipitation 0.14 in 0.13 in 0.23 in (2011)
Month to date precipitation 2.78  
Year to date precipitation 11.96  
Sea Level Pressure  
Sea Level Pressure 29.72 in    
Wind  
Wind Speed 11 mph (SW)    
Max Wind Speed 20 mph    
Max Gust Speed 30 mph    
Visibility 10 miles    
Events Rain    
T = Trace of Precipitation, MM = Missing Value Source: NWS Daily Summary

Daily Weather History Graph

Daily Weather History Graph

Search for Another Location

Airport:

Trip Planner

Search our weather history database for the weather conditions in past years. The results will help you decide how hot, cold, wet, or windy it might be!

Date:

Astronomy

May. 22, 2013 Rise Set
Actual Time 5:24 AM CDT 8:06 PM CDT
Civil Twilight 4:52 AM CDT 8:38 PM CDT
Nautical Twilight 4:12 AM CDT 9:18 PM CDT
Astronomical Twilight 3:27 AM CDT 10:04 PM CDT
Moon 5:27 PM CDT (5/22) 3:29 AM CDT (5/22)
Length of Visible Light 15h 45m
Length of Day
14h 41m
Waxing Gibbous, 91% of the Moon is Illuminated
May 22
Waxing Gibbous
May 24
Full
May 31
Last Quarter
Jun 8
New
Jun 16
First Quarter

Hourly Weather History & Observations

Time (CDT) Temp. Dew Point Humidity Pressure Visibility Wind Dir Wind Speed Gust Speed Precip Events Conditions
12:15 AM 71.6 °F 64.4 °F 78% 29.73 in 10.0 mi South 8.1 mph - N/A   Overcast
12:35 AM 69.8 °F 64.4 °F 83% 29.73 in 10.0 mi South 9.2 mph - N/A   Overcast
12:55 AM 69.8 °F 64.4 °F 83% 29.73 in 10.0 mi South 10.4 mph - N/A   Overcast
1:15 AM 69.8 °F 64.4 °F 83% 29.73 in 10.0 mi South 9.2 mph - N/A   Overcast
1:35 AM 69.8 °F 64.4 °F 83% 29.71 in 10.0 mi South 8.1 mph - N/A   Overcast
1:55 AM 69.8 °F 64.4 °F 83% 29.71 in 10.0 mi South 9.2 mph - N/A   Overcast
2:15 AM 69.8 °F 64.4 °F 83% 29.71 in 10.0 mi South 12.7 mph - N/A   Overcast
2:35 AM 69.8 °F 64.4 °F 83% 29.71 in 10.0 mi South 9.2 mph 18.4 mph N/A   Overcast
2:55 AM 69.8 °F 64.4 °F 83% 29.70 in 10.0 mi South 6.9 mph - N/A   Overcast
3:15 AM 69.8 °F 62.6 °F 78% 29.70 in 10.0 mi South 9.2 mph - N/A   Mostly Cloudy
3:35 AM 69.8 °F 62.6 °F 78% 29.70 in 10.0 mi South 10.4 mph - N/A   Overcast
3:55 AM 68.0 °F 62.6 °F 83% 29.70 in 10.0 mi SSW 9.2 mph - N/A   Overcast
4:15 AM 68.0 °F 62.6 °F 83% 29.71 in 10.0 mi SSW 12.7 mph 17.3 mph N/A   Overcast
4:35 AM 68.0 °F 62.6 °F 83% 29.70 in 10.0 mi SSW 11.5 mph - N/A   Overcast
4:55 AM 68.0 °F 62.6 °F 83% 29.70 in 10.0 mi SSW 10.4 mph - N/A   Overcast
5:15 AM 68.0 °F 62.6 °F 83% 29.70 in 10.0 mi SSW 12.7 mph - N/A   Overcast
5:35 AM 68.0 °F 62.6 °F 83% 29.69 in 10.0 mi South 12.7 mph - N/A   Overcast
5:55 AM 68.0 °F 62.6 °F 83% 29.70 in 10.0 mi South 11.5 mph 17.3 mph N/A   Overcast
6:15 AM 66.2 °F 62.6 °F 88% 29.70 in 10.0 mi South 12.7 mph - N/A   Overcast
6:35 AM 66.2 °F 62.6 °F 88% 29.71 in 7.0 mi SSW 10.4 mph - N/A   Drizzle
6:55 AM 64.4 °F 62.6 °F 94% 29.71 in 7.0 mi SSW 11.5 mph - N/A Rain Light Rain
7:15 AM 64.4 °F 62.6 °F 94% 29.70 in 7.0 mi South 10.4 mph - 0.01 in   Light Drizzle
7:35 AM 64.4 °F 62.6 °F 94% 29.70 in 7.0 mi South 12.7 mph - 0.01 in   Drizzle
7:55 AM 66.2 °F 62.6 °F 88% 29.69 in 10.0 mi SSW 12.7 mph 17.3 mph 0.01 in Rain Light Rain
8:15 AM 66.2 °F 62.6 °F 88% 29.68 in 10.0 mi South 8.1 mph - N/A   Mostly Cloudy
8:35 AM 66.2 °F 62.6 °F 88% 29.67 in 10.0 mi SSE 8.1 mph - N/A   Mostly Cloudy
8:55 AM 68.0 °F 64.4 °F 88% 29.69 in 10.0 mi South 11.5 mph - N/A   Scattered Clouds
9:15 AM 68.0 °F 62.6 °F 83% 29.70 in 10.0 mi South 12.7 mph - N/A   Overcast
9:35 AM 68.0 °F 64.4 °F 88% 29.71 in 10.0 mi SSW 13.8 mph - N/A   Overcast
9:55 AM 68.0 °F 62.6 °F 83% 29.71 in 10.0 mi SSW 13.8 mph - N/A Rain Light Rain
10:15 AM 71.6 °F 64.4 °F 78% 29.70 in 10.0 mi SSW 17.3 mph 21.9 mph N/A   Overcast
10:35 AM 69.8 °F 62.6 °F 78% 29.70 in 10.0 mi South 16.1 mph - N/A   Overcast
10:55 AM 71.6 °F 60.8 °F 69% 29.71 in 10.0 mi South 16.1 mph 23.0 mph 0.02 in   Overcast
11:15 AM 71.6 °F 64.4 °F 78% 29.70 in 10.0 mi SW 12.7 mph 28.8 mph N/A   Mostly Cloudy
11:35 AM 71.6 °F 62.6 °F 73% 29.70 in 10.0 mi SSW 16.1 mph - N/A   Overcast
11:55 AM 71.6 °F 60.8 °F 69% 29.70 in 10.0 mi SW 13.8 mph 26.5 mph N/A   Overcast
12:15 PM 71.6 °F 60.8 °F 69% 29.70 in 10.0 mi SW 19.6 mph - N/A   Overcast
12:35 PM 73.4 °F 60.8 °F 65% 29.69 in 10.0 mi SW 10.4 mph 21.9 mph N/A   Mostly Cloudy
12:55 PM 75.2 °F 59.0 °F 57% 29.69 in 10.0 mi SSW 19.6 mph 25.3 mph N/A   Scattered Clouds
1:15 PM 73.4 °F 59.0 °F 61% 29.69 in 10.0 mi SSW 19.6 mph 23.0 mph N/A   Mostly Cloudy
1:35 PM 68.0 °F 60.8 °F 78% 29.70 in 10.0 mi West 15.0 mph 29.9 mph N/A   Overcast
1:55 PM 68.0 °F 60.8 °F 78% 29.71 in 10.0 mi WSW 15.0 mph 21.9 mph N/A Rain Rain
2:15 PM 64.4 °F 62.6 °F 94% 29.71 in 5.0 mi SW 5.8 mph - 0.03 in Rain Rain
2:35 PM 64.4 °F 62.6 °F 94% 29.72 in 10.0 mi SW 5.8 mph - 0.04 in Rain Light Rain
2:55 PM 66.2 °F 64.4 °F 94% 29.72 in 7.0 mi SSW 8.1 mph - 0.11 in Rain Light Rain
3:15 PM 68.0 °F 64.4 °F 88% 29.72 in 10.0 mi WSW 9.2 mph - N/A   Overcast
3:35 PM 69.8 °F 60.8 °F 73% 29.72 in 10.0 mi WSW 12.7 mph 18.4 mph N/A   Scattered Clouds
3:55 PM 71.6 °F 57.2 °F 60% 29.71 in 10.0 mi West 10.4 mph 21.9 mph N/A   Scattered Clouds
4:15 PM 71.6 °F 53.6 °F 53% 29.70 in 10.0 mi West 15.0 mph 23.0 mph N/A   Scattered Clouds
4:35 PM 73.4 °F 51.8 °F 47% 29.70 in 10.0 mi West 13.8 mph 20.7 mph N/A   Clear
4:55 PM 73.4 °F 51.8 °F 47% 29.70 in 10.0 mi WSW 12.7 mph 18.4 mph N/A   Clear
5:15 PM 71.6 °F 51.8 °F 50% 29.70 in 10.0 mi WSW 12.7 mph - N/A   Clear
5:35 PM 71.6 °F 51.8 °F 50% 29.70 in 10.0 mi WSW 12.7 mph 18.4 mph N/A   Scattered Clouds
5:55 PM 71.6 °F 53.6 °F 53% 29.71 in 10.0 mi WSW 10.4 mph - N/A   Mostly Cloudy
6:15 PM 71.6 °F 51.8 °F 50% 29.70 in 10.0 mi WSW 15.0 mph 21.9 mph N/A   Mostly Cloudy
6:35 PM 71.6 °F 51.8 °F 50% 29.71 in 10.0 mi WSW 10.4 mph 19.6 mph N/A   Scattered Clouds
6:55 PM 69.8 °F 51.8 °F 53% 29.71 in 10.0 mi WSW 8.1 mph - N/A   Clear
7:15 PM 69.8 °F 53.6 °F 56% 29.72 in 10.0 mi WSW 5.8 mph - N/A   Mostly Cloudy
7:35 PM 68.0 °F 53.6 °F 60% 29.72 in 10.0 mi WSW 8.1 mph - N/A   Mostly Cloudy
7:55 PM 68.0 °F 55.4 °F 64% 29.73 in 10.0 mi West 4.6 mph - N/A   Mostly Cloudy
8:15 PM 66.2 °F 55.4 °F 68% 29.74 in 10.0 mi West 8.1 mph - N/A   Mostly Cloudy
8:35 PM 64.4 °F 59.0 °F 83% 29.74 in 10.0 mi West 3.5 mph - N/A   Overcast
8:55 PM 64.4 °F 59.0 °F 83% 29.75 in 10.0 mi WSW 5.8 mph - N/A   Overcast
9:15 PM 64.4 °F 59.0 °F 83% 29.76 in 10.0 mi WSW 11.5 mph 16.1 mph N/A   Overcast
9:35 PM 64.4 °F 59.0 °F 83% 29.77 in 10.0 mi WSW 6.9 mph - N/A   Overcast
9:55 PM 64.4 °F 59.0 °F 83% 29.78 in 10.0 mi WSW 8.1 mph - N/A   Overcast
10:15 PM 64.4 °F 57.2 °F 77% 29.78 in 10.0 mi West 8.1 mph - N/A   Overcast
10:35 PM 62.6 °F 57.2 °F 82% 29.78 in 10.0 mi West 9.2 mph - N/A   Mostly Cloudy
10:55 PM 62.6 °F 57.2 °F 82% 29.78 in 10.0 mi WSW 10.4 mph - N/A   Mostly Cloudy
11:15 PM 62.6 °F 57.2 °F 82% 29.78 in 10.0 mi WSW 8.1 mph - N/A   Overcast
11:35 PM 62.6 °F 57.2 °F 82% 29.78 in 10.0 mi West 5.8 mph - N/A   Overcast
11:55 PM 62.6 °F 57.2 °F 82% 29.78 in 10.0 mi West 6.9 mph - N/A   Overcast